Location: Pine Mountain Observatory
(43.7910°N, 120.9377°W)
Time: 17:15:49
(UTC-07:00)

Cosmos 1867 - Visible Passes

Search period start: 30 August 2014 00:00
Search period end: 09 September 2014 00:00
Orbit: 778 x 799 km, 65.0° (Epoch: 30 August)

Date Brightness Start Highest point End Pass type
(mag) Time Alt. Az. Time Alt. Az. Time Alt. Az.
30 Aug 5.3 01:29:19 10° NNW 01:32:51 30° NNE 01:32:51 30° NNE visible
30 Aug 5.8 03:12:50 10° NW 03:13:28 13° NW 03:13:28 13° NW visible
31 Aug 5.5 00:57:52 10° NNW 01:01:23 25° NNE 01:01:23 25° NNE visible
31 Aug 5.8 02:41:06 10° NW 02:42:00 15° NW 02:42:00 15° NW visible
01 Sep 5.6 00:26:28 10° NNW 00:30:02 22° NNE 00:30:02 22° NNE visible
01 Sep 5.8 02:09:27 10° NW 02:10:40 17° NW 02:10:40 17° NW visible
01 Sep 5.8 23:55:06 10° N 23:58:47 18° NNE 23:58:47 18° NNE visible
02 Sep 5.8 01:37:51 10° NNW 01:39:25 20° NNW 01:39:25 20° NNW visible
02 Sep 5.9 23:23:48 10° N 23:26:57 15° NNE 23:27:36 15° NE visible
03 Sep 5.7 01:06:18 10° NNW 01:08:14 22° NNW 01:08:14 22° NNW visible
03 Sep 6.0 22:52:36 10° N 22:55:01 13° NNE 22:56:28 12° NE visible
04 Sep 5.6 00:34:47 10° NNW 00:37:06 24° NNW 00:37:06 24° NNW visible
04 Sep 6.1 22:21:37 10° N 22:23:03 11° NNE 22:24:28 10° NE visible
05 Sep 5.5 00:03:18 10° NNW 00:06:02 25° N 00:06:02 25° N visible
05 Sep 5.4 23:31:51 10° NNW 23:35:00 25° NNE 23:35:00 25° NNE visible
06 Sep 6.2 01:15:09 10° NW 01:15:38 13° NW 01:15:38 13° NW visible
06 Sep 5.4 23:00:27 10° NNW 23:04:00 23° NNE 23:04:00 23° NNE visible
07 Sep 6.0 00:43:29 10° NW 00:44:38 17° NW 00:44:38 17° NW visible
07 Sep 5.5 22:29:04 10° N 22:32:55 19° NE 22:33:02 19° NE visible
08 Sep 5.8 00:11:52 10° NNW 00:13:41 22° NNW 00:13:41 22° NNW visible
08 Sep 5.6 21:57:45 10° N 22:01:02 16° NNE 22:02:06 15° NE visible
08 Sep 5.4 23:40:18 10° NNW 23:42:45 27° NNW 23:42:45 27° NNW visible
